Van Nuys, CA

1:58 PM PDT on September 29, 2016 (GMT -0700)
Van Nuys

Weather History for KVNY - May, 2013

Change the Weather History Date:

Thursday, May 16, 2013

  Actual Average Record
Temperature  
Mean Temperature 67 °F -  
Max Temperature 77 °F 75 °F 102 °F (2008)
Min Temperature 59 °F 54 °F 46 °F (2011)
Cooling Degree Days 2    
Growing Degree Days 17 (Base 50)    
Moisture  
Dew Point 52 °F    
Average Humidity 65    
Maximum Humidity 81    
Minimum Humidity 44    
Precipitation  
Precipitation 0.00 in - - ()
Sea Level Pressure  
Sea Level Pressure 29.92 in    
Wind  
Wind Speed 5 mph (SE)    
Max Wind Speed 13 mph    
Max Gust Speed 16 mph    
Visibility 9 miles    
Events      
Averages and records for this station are not official NWS values.
T = Trace of Precipitation, MM = Missing Value Source: NWS Daily Summary

Daily Weather History Graph

Daily Weather History Graph

Search for Another Location

Airport or City:

Trip Planner

Search our weather history database for the weather conditions in past years. The results will help you decide how hot, cold, wet, or windy it might be!

Date:

Astronomy

May. 16, 2013 Rise Set
Actual Time 5:51 AM PDT 7:50 PM PDT
Civil Twilight 5:23 AM PDT 8:17 PM PDT
Nautical Twilight 4:49 AM PDT 8:51 PM PDT
Astronomical Twilight 4:13 AM PDT 9:28 PM PDT
Moon 11:24 AM PDT (5/16) 12:17 AM PDT (5/16)
Length of Visible Light 14h 54m
Length of Day
13h 58m
Waxing Crescent, 36% of the Moon is Illuminated
May 16
Waxing Crescent
May 17
First Quarter
May 24
Full
May 31
Last Quarter
Jun 8
New

Hourly Weather History & Observations

Time (PDT) Temp. Dew Point Humidity Pressure Visibility Wind Dir Wind Speed Gust Speed Precip Events Conditions
12:51 AM 61.0 °F 52.0 °F 72% 29.95 in 10.0 mi ESE 5.8 mph - N/A   Clear
1:34 AM 60.8 °F 51.8 °F 72% 29.96 in 10.0 mi SE 3.5 mph - N/A   Mostly Cloudy
1:51 AM 60.1 °F 52.0 °F 75% 29.94 in 10.0 mi SE 4.6 mph - N/A   Overcast
2:43 AM 59.0 °F 51.8 °F 77% 29.95 in 9.0 mi SSE 3.5 mph - N/A   Overcast
2:51 AM 59.0 °F 52.0 °F 78% 29.93 in 9.0 mi SSE 4.6 mph - N/A   Overcast
3:51 AM 59.0 °F 53.1 °F 81% 29.93 in 7.0 mi South 3.5 mph - N/A   Overcast
4:51 AM 60.1 °F 53.1 °F 78% 29.93 in 7.0 mi NE 3.5 mph - N/A   Overcast
5:51 AM 60.1 °F 53.1 °F 78% 29.94 in 5.0 mi Calm Calm - N/A   Haze
6:51 AM 60.1 °F 52.0 °F 75% 29.95 in 7.0 mi South 4.6 mph - N/A   Overcast
7:34 AM 60.8 °F 51.8 °F 72% 29.97 in 8.0 mi SSE 5.8 mph - N/A   Overcast
7:51 AM 61.0 °F 52.0 °F 72% 29.95 in 8.0 mi South 5.8 mph - N/A   Overcast
8:51 AM 62.1 °F 52.0 °F 70% 29.96 in 8.0 mi WSW 3.5 mph - N/A   Overcast
9:51 AM 64.0 °F 52.0 °F 65% 29.96 in 8.0 mi Calm Calm - N/A   Overcast
10:51 AM 64.9 °F 52.0 °F 63% 29.96 in 9.0 mi Variable 3.5 mph - N/A   Overcast
11:51 AM 68.0 °F 51.1 °F 55% 29.95 in 10.0 mi Variable 5.8 mph - N/A   Overcast
12:51 PM 72.0 °F 52.0 °F 49% 29.93 in 10.0 mi SSE 5.8 mph - N/A   Scattered Clouds
1:51 PM 73.9 °F 51.1 °F 45% 29.91 in 10.0 mi South 6.9 mph - N/A   Clear
2:51 PM 75.0 °F 52.0 °F 44% 29.88 in 10.0 mi ESE 8.1 mph 16.1 mph N/A   Clear
3:51 PM 73.0 °F 53.1 °F 49% 29.87 in 10.0 mi SSE 12.7 mph - N/A   Clear
4:51 PM 72.0 °F 53.1 °F 51% 29.88 in 10.0 mi South 9.2 mph - N/A   Clear
5:51 PM 71.1 °F 52.0 °F 51% 29.87 in 10.0 mi SE 8.1 mph - N/A   Clear
6:51 PM 68.0 °F 52.0 °F 56% 29.87 in 10.0 mi SE 6.9 mph - N/A   Clear
7:51 PM 66.0 °F 52.0 °F 60% 29.88 in 10.0 mi ESE 4.6 mph - N/A   Clear
8:51 PM 66.0 °F 52.0 °F 60% 29.90 in 6.0 mi SE 4.6 mph - N/A   Haze
9:51 PM 63.0 °F 52.0 °F 67% 29.91 in 6.0 mi ESE 5.8 mph - N/A   Haze
10:51 PM 62.1 °F 52.0 °F 70% 29.91 in 10.0 mi ESE 5.8 mph - N/A   Haze
11:51 PM 60.1 °F 51.1 °F 72% 29.91 in 10.0 mi SE 5.8 mph - N/A   Haze